This is the latest recevied weather packets stored in our database for station/object WX5KDM. If no packets are shown the sender has not sent any weather packets the latest 10 day(s).
| Time | Temp. | Humidity | Pressure | Rain* | Wind** | Luminosity | Snow |
|---|---|---|---|---|---|---|---|
| 1788325653 | 23.89° C | 90% | 1017.8 hPa | 0 mm | - | - | - |
| 1788325348 | 23.89° C | 89% | 1017.8 hPa | 0 mm | - | - | - |
| 1788325042 | 23.89° C | 89% | 1017.9 hPa | 0 mm | - | - | - |
| 1788324738 | 24.44° C | 89% | 1017.8 hPa | 0 mm | - | - | - |
| 1788324434 | 23.89° C | 88% | 1017.7 hPa | 0 mm | - | - | - |
| 1788324129 | 23.89° C | 88% | 1017.8 hPa | 0 mm | - | - | - |
| 1788323824 | 23.89° C | 88% | 1017.8 hPa | 0 mm | - | - | - |
| 1788323519 | 23.89° C | 88% | 1017.6 hPa | 0 mm | - | - | - |
| 1788323219 | 24.44° C | 88% | 1017.7 hPa | 0 mm | - | - | - |
| 1788322914 | 24.44° C | 88% | 1017.7 hPa | 0 mm | - | - | - |
| 1788322614 | 24.44° C | 88% | 1017.8 hPa | 0 mm | - | - | - |
| 1788322308 | 24.44° C | 87% | 1017.8 hPa | 0 mm | - | - | - |
| 1788322002 | 25° C | 87% | 1018 hPa | 0 mm | - | - | - |
| 1788321698 | 25° C | 86% | 1017.8 hPa | 0 mm | - | - | - |
| 1788321396 | 25° C | 85% | 1017.9 hPa | 0 mm | - | - | - |
| 1788321092 | 25° C | 85% | 1018.2 hPa | 0 mm | - | - | - |
| 1788320811 | 25° C | 85% | 1017.7 hPa | 0 mm | - | - | - |
| 1788320490 | 25.56° C | 84% | 1017.9 hPa | 0 mm | - | - | - |
| 1788320190 | 25.56° C | 83% | 1018 hPa | 0 mm | - | - | - |
| 1788319885 | 25.56° C | 82% | 1018 hPa | 0 mm | - | - | - |
| 1788319584 | 26.11° C | 82% | 1017.9 hPa | 0 mm | - | - | - |
| 1788319284 | 26.11° C | 81% | 1018 hPa | 0 mm | - | - | - |
| 1788318979 | 26.67° C | 80% | 1018.2 hPa | 0 mm | - | - | - |
| 1788318675 | 27.22° C | 79% | 1018 hPa | 0 mm | - | - | - |
| 1788318370 | 27.22° C | 79% | 1018 hPa | 0 mm | - | - | - |
* Rain latest hour (hover to see other rain measurements)
** Current wind speed in m/s (hover to see current wind gust speed)